When you browse on this site, cookies collect data to enhance your experience and personalize the content and advertising you see.
Visit our Privacy Policy to learn more. By continuing to use the site, you agree to this use of cookies and data.
  • In Netherlands
  • List of Countries
  • For 7 days
  • Water Temperature
  • Satellite Maps
  • Weather Map
  • Weather Widgets
  • user-avatar
    Login

    Hourly Weather Świdwin

    Today, 25 April, Thursday

    Time Temperature Precipitation Wind Pressure Humidity
    00:00 +13°C° 0 mm 4 mps 748 mmHg 80%
    01:00 +13°C° 0 mm 4 mps 747 mmHg 84%
    02:00 +13°C° 0 mm 4 mps 747 mmHg 85%
    03:00 +12°C° 0 mm 4 mps 747 mmHg 86%
    04:00 +12°C° 0 mm 4 mps 747 mmHg 87%
    05:00 +13°C° 0 mm 4 mps 748 mmHg 85%
    06:00 +14°C° 0 mm 4 mps 748 mmHg 83%
    07:00 +15°C° 0 mm 4 mps 748 mmHg 81%
    08:00 +17°C° 0 mm 4 mps 748 mmHg 77%
    09:00 +18°C° 0 mm 3 mps 749 mmHg 74%
    10:00 +20°C° 0 mm 3 mps 749 mmHg 70%
    11:00 +21°C° 0 mm 3 mps 749 mmHg 63%
    12:00 +22°C° 0 mm 3 mps 750 mmHg 56%
    13:00 +25°C° 0 mm 3 mps 750 mmHg 49%
    14:00 +24°C° 0 mm 3 mps 750 mmHg 50%
    15:00 +24°C° 0 mm 3 mps 750 mmHg 52%
    16:00 +22°C° 0 mm 3 mps 750 mmHg 53%
    17:00 +20°C° 0 mm 3 mps 750 mmHg 63%
    18:00 +18°C° 0 mm 3 mps 750 mmHg 74%
    19:00 +16°C° 0 mm 3 mps 750 mmHg 84%
    20:00 +14°C° 0 mm 3 mps 750 mmHg 85%
    21:00 +13°C° 0 mm 3 mps 750 mmHg 85%
    22:00 +12°C° 0 mm 3 mps 750 mmHg 86%
    23:00 +12°C° 0 mm 3 mps 750 mmHg 86%

    Tomorrow, 26 April, Friday

    Time Temperature Precipitation Wind Pressure Humidity
    00:00 +12°C° 0 mm 3 mps 750 mmHg 86%
    01:00 +11°C° 0 mm 3 mps 750 mmHg 86%
    02:00 +11°C° 0 mm 3 mps 749 mmHg 88%
    03:00 +11°C° 0 mm 3 mps 749 mmHg 90%
    04:00 +11°C° 0 mm 3 mps 748 mmHg 92%
    05:00 +13°C° 0 mm 3 mps 748 mmHg 88%
    06:00 +16°C° 0 mm 3 mps 748 mmHg 84%
    07:00 +17°C° 0 mm 4 mps 747 mmHg 79%
    08:00 +19°C° 0 mm 4 mps 747 mmHg 71%
    09:00 +21°C° 0 mm 4 mps 747 mmHg 63%
    10:00 +23°C° 0 mm 4 mps 746 mmHg 55%
    11:00 +25°C° 0 mm 4 mps 746 mmHg 50%
    12:00 +26°C° 0 mm 4 mps 746 mmHg 46%
    13:00 +27°C° 0 mm 4 mps 745 mmHg 42%
    14:00 +26°C° 0 mm 4 mps 745 mmHg 45%
    15:00 +26°C° 0 mm 3 mps 745 mmHg 47%
    16:00 +26°C° 0 mm 3 mps 745 mmHg 49%
    17:00 +24°C° 0 mm 2 mps 744 mmHg 54%
    18:00 +23°C° 0 mm 2 mps 744 mmHg 59%
    19:00 +21°C° 0 mm 1 mps 744 mmHg 64%
    20:00 +19°C° 0.2 mm 2 mps 744 mmHg 67%
    21:00 +19°C° 0.2 mm 2 mps 745 mmHg 70%
    22:00 +18°C° 0.2 mm 3 mps 745 mmHg 74%
    23:00 +15°C° 0.3 mm 4 mps 745 mmHg 80%

    Day after tomorrow, 27 April, Saturday

    Time Temperature Precipitation Wind Pressure Humidity
    00:00 +14°C° 0.3 mm 4 mps 745 mmHg 86%
    01:00 +13°C° 0.3 mm 5 mps 745 mmHg 93%
    02:00 +12°C° 0.2 mm 5 mps 745 mmHg 92%
    03:00 +11°C° 0.2 mm 6 mps 746 mmHg 92%
    04:00 +10°C° 0.2 mm 6 mps 746 mmHg 91%
    05:00 +10°C° 0.1 mm 6 mps 746 mmHg 91%
    06:00 +9°C° 0.1 mm 6 mps 746 mmHg 90%
    07:00 +9°C° 0.1 mm 6 mps 747 mmHg 90%
    08:00 +9°C° 0.1 mm 6 mps 747 mmHg 88%
    09:00 +9°C° 0.1 mm 5 mps 747 mmHg 87%
    10:00 +9°C° 0.1 mm 5 mps 748 mmHg 85%
    11:00 +10°C° 0 mm 5 mps 748 mmHg 76%
    12:00 +13°C° 0 mm 5 mps 748 mmHg 66%
    13:00 +15°C° 0 mm 5 mps 748 mmHg 56%
    14:00 +15°C° 0 mm 5 mps 748 mmHg 54%
    15:00 +15°C° 0 mm 4 mps 748 mmHg 52%
    16:00 +15°C° 0 mm 4 mps 748 mmHg 50%
    17:00 +14°C° 0 mm 3 mps 748 mmHg 56%
    18:00 +13°C° 0 mm 2 mps 748 mmHg 63%
    19:00 +12°C° 0 mm 2 mps 748 mmHg 69%
    20:00 +10°C° 0 mm 2 mps 748 mmHg 69%
    21:00 +10°C° 0 mm 1 mps 749 mmHg 69%
    22:00 +10°C° 0 mm 1 mps 749 mmHg 70%
    23:00 +10°C° 0 mm 1 mps 749 mmHg 69%

    28 April, Sunday

    Time Temperature Precipitation Wind Pressure Humidity
    00:00 +10°C° 0 mm 1 mps 749 mmHg 68%
    01:00 +9°C° 0 mm 0 mps 749 mmHg 67%
    02:00 +10°C° 0 mm 1 mps 749 mmHg 68%
    03:00 +10°C° 0 mm 1 mps 750 mmHg 69%
    04:00 +10°C° 0 mm 1 mps 750 mmHg 70%
    05:00 +9°C° 0 mm 2 mps 750 mmHg 70%
    06:00 +10°C° 0 mm 2 mps 750 mmHg 71%
    07:00 +10°C° 0 mm 3 mps 751 mmHg 72%
    08:00 +11°C° 0 mm 3 mps 751 mmHg 69%
    09:00 +13°C° 0 mm 3 mps 751 mmHg 66%
    10:00 +14°C° 0 mm 4 mps 752 mmHg 64%
    11:00 +14°C° 0 mm 4 mps 752 mmHg 64%
    12:00 +14°C° 0 mm 4 mps 752 mmHg 64%
    13:00 +13°C° 0 mm 4 mps 752 mmHg 64%
    14:00 +13°C° 0 mm 5 mps 752 mmHg 66%
    15:00 +12°C° 0 mm 5 mps 752 mmHg 68%
    16:00 +12°C° 0 mm 5 mps 752 mmHg 70%
    17:00 +10°C° 0.1 mm 5 mps 752 mmHg 76%
    18:00 +10°C° 0.1 mm 4 mps 752 mmHg 82%
    19:00 +8°C° 0.1 mm 4 mps 753 mmHg 88%
    20:00 +8°C° 0.6 mm 4 mps 753 mmHg 90%
    21:00 +7°C° 0.6 mm 4 mps 753 mmHg 93%
    22:00 +7°C° 0.6 mm 4 mps 753 mmHg 95%
    23:00 +7°C° 0.6 mm 4 mps 753 mmHg 95%

    29 April, Monday

    Time Temperature Precipitation Wind Pressure Humidity
    00:00 +7°C° 0.6 mm 3 mps 753 mmHg 95%
    01:00 +7°C° 0.6 mm 2 mps 753 mmHg 96%
    02:00 +7°C° 0.4 mm 2 mps 753 mmHg 96%
    03:00 +8°C° 0.4 mm 2 mps 753 mmHg 96%
    04:00 +9°C° 0.4 mm 1 mps 753 mmHg 96%
    05:00 +9°C° 0.4 mm 2 mps 753 mmHg 95%
    06:00 +9°C° 0.4 mm 3 mps 753 mmHg 94%
    07:00 +10°C° 0.4 mm 4 mps 753 mmHg 92%
    08:00 +10°C° 0.2 mm 5 mps 753 mmHg 87%
    09:00 +12°C° 0.2 mm 5 mps 754 mmHg 83%
    10:00 +13°C° 0.2 mm 6 mps 754 mmHg 78%
    11:00 +14°C° 0 mm 6 mps 754 mmHg 70%
    12:00 +15°C° 0 mm 6 mps 754 mmHg 62%
    13:00 +16°C° 0 mm 6 mps 754 mmHg 54%
    14:00 +16°C° 0 mm 6 mps 754 mmHg 52%
    15:00 +15°C° 0 mm 6 mps 754 mmHg 51%
    16:00 +15°C° 0 mm 6 mps 754 mmHg 49%
    17:00 +13°C° 0 mm 6 mps 754 mmHg 53%
    18:00 +11°C° 0 mm 6 mps 755 mmHg 56%
    19:00 +9°C° 0 mm 5 mps 755 mmHg 60%
    20:00 +8°C° 0 mm 5 mps 755 mmHg 62%
    21:00 +7°C° 0 mm 5 mps 755 mmHg 63%
    22:00 +6°C° 0 mm 4 mps 756 mmHg 65%
    23:00 +5°C° 0 mm 4 mps 756 mmHg 68%

    30 April, Tuesday

    Time Temperature Precipitation Wind Pressure Humidity
    00:00 +5°C° 0 mm 4 mps 756 mmHg 71%
    01:00 +4°C° 0 mm 3 mps 756 mmHg 74%
    02:00 +4°C° 0 mm 3 mps 756 mmHg 76%
    03:00 +3°C° 0 mm 3 mps 756 mmHg 79%
    04:00 +3°C° 0 mm 3 mps 756 mmHg 81%
    05:00 +4°C° 0 mm 3 mps 756 mmHg 77%
    06:00 +7°C° 0 mm 3 mps 756 mmHg 72%
    07:00 +7°C° 0 mm 4 mps 756 mmHg 68%
    08:00 +10°C° 0 mm 4 mps 756 mmHg 61%
    09:00 +11°C° 0 mm 4 mps 756 mmHg 54%
    10:00 +13°C° 0 mm 5 mps 756 mmHg 47%
    11:00 +13°C° 0 mm 5 mps 756 mmHg 46%
    12:00 +14°C° 0 mm 5 mps 756 mmHg 45%
    13:00 +15°C° 0 mm 5 mps 756 mmHg 43%
    14:00 +14°C° 0 mm 5 mps 756 mmHg 43%
    15:00 +14°C° 0 mm 5 mps 755 mmHg 43%
    16:00 +14°C° 0 mm 5 mps 755 mmHg 44%
    17:00 +12°C° 0 mm 5 mps 755 mmHg 48%
    18:00 +10°C° 0 mm 5 mps 755 mmHg 53%
    19:00 +8°C° 0 mm 4 mps 755 mmHg 58%
    20:00 +7°C° 0 mm 4 mps 755 mmHg 60%
    21:00 +6°C° 0 mm 4 mps 755 mmHg 62%
    22:00 +5°C° 0 mm 4 mps 756 mmHg 64%
    23:00 +5°C° 0 mm 3 mps 755 mmHg 68%
    Show more